Time,TemperatureF,DewpointF,PressureIn,WindDirection,WindDirectionDegrees,WindSpeedMPH,WindSpeedGustMPH,Humidity,HourlyPrecipIn,Conditions,Clouds,dailyrainin,SoftwareType,DateUTC
2013-01-27 00:01:00,28.0,27.0,-100.00,NNW,340,0.0,-999.0,95,-99.99,,,-99.99,,2013-01-27 07:01:00,
2013-01-27 00:14:00,28.0,27.0,-100.00,NNW,340,0.0,-999.0,95,-99.99,,,-99.99,,2013-01-27 07:14:00,
2013-01-27 00:21:00,29.0,27.0,-100.00,NNW,340,2.0,5.0,95,-99.99,,,-99.99,,2013-01-27 07:21:00,
2013-01-27 00:31:00,29.0,27.0,-100.00,NNW,340,2.0,5.0,95,-99.99,,,-99.99,,2013-01-27 07:31:00,
2013-01-27 00:41:00,29.0,28.0,-100.00,NNW,340,3.0,5.0,95,-99.99,,,-99.99,,2013-01-27 07:41:00,
2013-01-27 00:52:00,29.0,28.0,-100.00,NNW,340,3.0,5.0,95,-99.99,,,-99.99,,2013-01-27 07:52:00,
2013-01-27 01:01:00,29.0,28.0,-100.00,NNW,340,4.0,-999.0,95,-99.99,,,-99.99,,2013-01-27 08:01:00,
2013-01-27 01:11:00,29.0,28.0,-100.00,NNW,340,4.0,-999.0,95,-99.99,,,-99.99,,2013-01-27 08:11:00,
2013-01-27 01:22:00,29.0,28.0,-100.00,NNW,340,3.0,7.0,95,-99.99,,,-99.99,,2013-01-27 08:22:00,
2013-01-27 01:32:00,29.0,28.0,-100.00,NNW,340,3.0,7.0,95,-99.99,,,-99.99,,2013-01-27 08:32:00,
2013-01-27 01:42:00,29.0,28.0,-100.00,NNW,340,2.0,4.0,95,-99.99,,,-99.99,,2013-01-27 08:42:00,
2013-01-27 01:52:00,29.0,28.0,-100.00,NNW,340,2.0,4.0,95,-99.99,,,-99.99,,2013-01-27 08:52:00,
2013-01-27 02:02:00,30.0,29.0,-100.00,NNW,340,4.0,9.0,95,-99.99,,,-99.99,,2013-01-27 09:02:00,
2013-01-27 02:11:00,30.0,29.0,-100.00,NNW,340,4.0,9.0,95,-99.99,,,-99.99,,2013-01-27 09:11:00,
2013-01-27 02:21:00,29.0,28.0,-100.00,NNW,340,1.0,-999.0,95,-99.99,,,-99.99,,2013-01-27 09:21:00,
2013-01-27 02:32:00,29.0,28.0,-100.00,NNW,340,1.0,-999.0,95,-99.99,,,-99.99,,2013-01-27 09:32:00,
2013-01-27 02:41:00,30.0,28.0,-100.00,NNW,340,2.0,6.0,94,-99.99,,,-99.99,,2013-01-27 09:41:00,
2013-01-27 02:52:00,30.0,28.0,-100.00,NNW,340,2.0,6.0,94,-99.99,,,-99.99,,2013-01-27 09:52:00,
2013-01-27 03:01:00,30.0,28.0,-100.00,NNW,335,3.0,6.0,93,-99.99,,,-99.99,,2013-01-27 10:01:00,
2013-01-27 03:11:00,30.0,28.0,-100.00,NNW,335,3.0,6.0,93,-99.99,,,-99.99,,2013-01-27 10:11:00,
2013-01-27 03:21:00,32.0,27.0,-100.00,WNW,285,5.0,16.0,81,-99.99,,,-99.99,,2013-01-27 10:21:00,
2013-01-27 03:31:00,32.0,27.0,-100.00,WNW,285,5.0,16.0,81,-99.99,,,-99.99,,2013-01-27 10:31:00,
2013-01-27 03:42:00,32.0,26.0,-100.00,West,270,4.0,7.0,76,-99.99,,,-99.99,,2013-01-27 10:42:00,
2013-01-27 03:52:00,32.0,26.0,-100.00,West,270,4.0,7.0,76,-99.99,,,-99.99,,2013-01-27 10:52:00,
2013-01-27 04:01:00,32.0,26.0,-100.00,West,270,2.0,13.0,77,-99.99,,,-99.99,,2013-01-27 11:01:00,
2013-01-27 04:11:00,32.0,26.0,-100.00,West,270,2.0,13.0,77,-99.99,,,-99.99,,2013-01-27 11:11:00,
2013-01-27 04:21:00,32.0,26.0,-100.00,West,270,6.0,11.0,77,-99.99,,,-99.99,,2013-01-27 11:21:00,
2013-01-27 04:32:00,32.0,26.0,-100.00,West,270,6.0,11.0,77,-99.99,,,-99.99,,2013-01-27 11:32:00,
2013-01-27 04:42:00,32.0,25.0,-100.00,West,265,2.0,9.0,76,-99.99,,,-99.99,,2013-01-27 11:42:00,
2013-01-27 04:52:00,32.0,25.0,-100.00,West,265,2.0,9.0,76,-99.99,,,-99.99,,2013-01-27 11:52:00,
2013-01-27 05:02:00,31.0,26.0,-100.00,West,270,4.0,7.0,78,-99.99,,,-99.99,,2013-01-27 12:02:00,
2013-01-27 05:11:00,31.0,26.0,-100.00,West,270,4.0,7.0,78,-99.99,,,-99.99,,2013-01-27 12:11:00,
2013-01-27 05:21:00,31.0,25.0,-100.00,West,270,3.0,7.0,77,-99.99,,,-99.99,,2013-01-27 12:21:00,
2013-01-27 05:32:00,31.0,25.0,-100.00,West,270,3.0,7.0,77,-99.99,,,-99.99,,2013-01-27 12:32:00,
2013-01-27 05:42:00,31.0,25.0,-100.00,West,265,2.0,-999.0,76,-99.99,,,-99.99,,2013-01-27 12:42:00,
2013-01-27 05:52:00,31.0,25.0,-100.00,West,265,2.0,-999.0,76,-99.99,,,-99.99,,2013-01-27 12:52:00,
2013-01-27 06:02:00,31.0,25.0,-100.00,West,270,1.0,3.0,76,-99.99,,,-99.99,,2013-01-27 13:02:00,
2013-01-27 06:11:00,31.0,25.0,-100.00,West,270,1.0,3.0,76,-99.99,,,-99.99,,2013-01-27 13:11:00,
2013-01-27 06:22:00,31.0,25.0,-100.00,West,270,1.0,7.0,77,-99.99,,,-99.99,,2013-01-27 13:22:00,
2013-01-27 06:32:00,31.0,25.0,-100.00,West,270,1.0,7.0,77,-99.99,,,-99.99,,2013-01-27 13:32:00,
2013-01-27 06:42:00,31.0,24.0,-100.00,West,265,7.0,12.0,75,-99.99,,,-99.99,,2013-01-27 13:42:00,
2013-01-27 06:52:00,31.0,24.0,-100.00,West,265,7.0,12.0,75,-99.99,,,-99.99,,2013-01-27 13:52:00,
2013-01-27 07:02:00,31.0,24.0,-100.00,West,260,6.0,9.0,74,-99.99,,,-99.99,,2013-01-27 14:02:00,
2013-01-27 07:11:00,31.0,24.0,-100.00,West,260,6.0,9.0,74,-99.99,,,-99.99,,2013-01-27 14:11:00,
2013-01-27 07:22:00,31.0,24.0,-100.00,WSW,255,3.0,6.0,73,-99.99,,,-99.99,,2013-01-27 14:22:00,
2013-01-27 07:32:00,31.0,24.0,-100.00,WSW,255,3.0,6.0,73,-99.99,,,-99.99,,2013-01-27 14:32:00,
2013-01-27 07:42:00,32.0,24.0,-100.00,WSW,245,1.0,12.0,70,-99.99,,,-99.99,,2013-01-27 14:42:00,
2013-01-27 07:53:00,32.0,24.0,-100.00,WSW,245,1.0,12.0,70,-99.99,,,-99.99,,2013-01-27 14:53:00,
2013-01-27 08:02:00,31.0,24.0,-100.00,WSW,255,4.0,12.0,73,-99.99,,,-99.99,,2013-01-27 15:02:00,
2013-01-27 08:12:00,31.0,24.0,-100.00,WSW,255,4.0,12.0,73,-99.99,,,-99.99,,2013-01-27 15:12:00,
2013-01-27 08:22:00,31.0,24.0,-100.00,West,260,7.0,18.0,75,-99.99,,,-99.99,,2013-01-27 15:22:00,
2013-01-27 08:32:00,31.0,24.0,-100.00,West,260,7.0,18.0,75,-99.99,,,-99.99,,2013-01-27 15:32:00,
2013-01-27 08:42:00,31.0,24.0,-100.00,WSW,255,6.0,18.0,73,-99.99,,,-99.99,,2013-01-27 15:42:00,
2013-01-27 08:53:00,31.0,24.0,-100.00,WSW,255,6.0,18.0,73,-99.99,,,-99.99,,2013-01-27 15:53:00,
2013-01-27 09:02:00,31.0,24.0,-100.00,West,260,4.0,8.0,74,-99.99,,,-99.99,,2013-01-27 16:02:00,
2013-01-27 09:12:00,31.0,24.0,-100.00,West,260,4.0,8.0,74,-99.99,,,-99.99,,2013-01-27 16:12:00,
2013-01-27 09:21:00,32.0,22.0,-100.00,SW,230,7.0,17.0,67,-99.99,,,-99.99,,2013-01-27 16:21:00,
2013-01-27 09:32:00,32.0,22.0,-100.00,SW,230,7.0,17.0,67,-99.99,,,-99.99,,2013-01-27 16:32:00,
2013-01-27 09:42:00,33.0,22.0,-100.00,SW,225,7.0,16.0,65,-99.99,,,-99.99,,2013-01-27 16:42:00,
2013-01-27 09:53:00,33.0,22.0,-100.00,SW,225,7.0,16.0,65,-99.99,,,-99.99,,2013-01-27 16:53:00,
2013-01-27 10:02:00,35.0,22.0,-100.00,South,190,14.0,23.0,57,-99.99,,,-99.99,,2013-01-27 17:02:00,
2013-01-27 10:12:00,35.0,22.0,-100.00,South,190,14.0,23.0,57,-99.99,,,-99.99,,2013-01-27 17:12:00,
2013-01-27 10:22:00,35.0,21.0,-100.00,South,185,11.0,26.0,56,-99.99,,,-99.99,,2013-01-27 17:22:00,
2013-01-27 10:32:00,35.0,21.0,-100.00,South,185,11.0,26.0,56,-99.99,,,-99.99,,2013-01-27 17:32:00,
2013-01-27 10:42:00,36.0,20.0,-100.00,South,170,11.0,29.0,52,-99.99,,,-99.99,,2013-01-27 17:42:00,
2013-01-27 10:53:00,36.0,20.0,-100.00,South,170,11.0,29.0,52,-99.99,,,-99.99,,2013-01-27 17:53:00,
2013-01-27 11:02:00,36.0,20.0,-100.00,SSE,165,9.0,32.0,50,-99.99,,,-99.99,,2013-01-27 18:02:00,
2013-01-27 11:11:00,36.0,20.0,-100.00,SSE,165,9.0,32.0,50,-99.99,,,-99.99,,2013-01-27 18:11:00,
2013-01-27 11:22:00,37.0,19.0,-100.00,SSE,150,6.0,23.0,47,-99.99,,,-99.99,,2013-01-27 18:22:00,
2013-01-27 11:32:00,37.0,19.0,-100.00,SSE,150,6.0,23.0,47,-99.99,,,-99.99,,2013-01-27 18:32:00,
2013-01-27 11:42:00,37.0,19.0,-100.00,SE,145,7.0,22.0,46,-99.99,,,-99.99,,2013-01-27 18:42:00,
2013-01-27 11:52:00,37.0,19.0,-100.00,SE,145,7.0,22.0,46,-99.99,,,-99.99,,2013-01-27 18:52:00,
2013-01-27 12:02:00,37.0,18.0,-100.00,SE,145,15.0,30.0,46,-99.99,,,-99.99,,2013-01-27 19:02:00,
2013-01-27 12:11:00,37.0,18.0,-100.00,SE,145,15.0,30.0,46,-99.99,,,-99.99,,2013-01-27 19:11:00,
2013-01-27 12:22:00,37.0,18.0,-100.00,SE,145,11.0,30.0,45,-99.99,,,-99.99,,2013-01-27 19:22:00,
2013-01-27 12:32:00,37.0,18.0,-100.00,SE,145,11.0,30.0,45,-99.99,,,-99.99,,2013-01-27 19:32:00,
2013-01-27 12:42:00,37.0,18.0,-100.00,SE,140,11.0,23.0,44,-99.99,,,-99.99,,2013-01-27 19:42:00,
2013-01-27 12:52:00,37.0,18.0,-100.00,SE,140,11.0,23.0,44,-99.99,,,-99.99,,2013-01-27 19:52:00,
2013-01-27 13:02:00,37.0,17.0,-100.00,SE,135,9.0,24.0,43,-99.99,,,-99.99,,2013-01-27 20:02:00,
2013-01-27 13:11:00,37.0,17.0,-100.00,SE,135,9.0,24.0,43,-99.99,,,-99.99,,2013-01-27 20:11:00,
2013-01-27 13:22:00,38.0,18.0,-100.00,SE,135,10.0,20.0,43,-99.99,,,-99.99,,2013-01-27 20:22:00,
2013-01-27 13:33:00,38.0,18.0,-100.00,SE,135,10.0,20.0,43,-99.99,,,-99.99,,2013-01-27 20:33:00,
2013-01-27 13:42:00,38.0,18.0,-100.00,SE,130,6.0,17.0,42,-99.99,,,-99.99,,2013-01-27 20:42:00,
2013-01-27 13:52:00,38.0,18.0,-100.00,SE,130,6.0,17.0,42,-99.99,,,-99.99,,2013-01-27 20:52:00,
2013-01-27 14:02:00,38.0,18.0,-100.00,SE,135,9.0,20.0,43,-99.99,,,-99.99,,2013-01-27 21:02:00,
2013-01-27 14:12:00,38.0,18.0,-100.00,SE,135,9.0,20.0,43,-99.99,,,-99.99,,2013-01-27 21:12:00,
2013-01-27 14:22:00,38.0,18.0,-100.00,SE,135,7.0,18.0,43,-99.99,,,-99.99,,2013-01-27 21:22:00,
2013-01-27 14:33:00,38.0,18.0,-100.00,SE,135,7.0,18.0,43,-99.99,,,-99.99,,2013-01-27 21:33:00,
2013-01-27 14:42:00,38.0,18.0,-100.00,SE,135,6.0,19.0,43,-99.99,,,-99.99,,2013-01-27 21:42:00,
2013-01-27 14:52:00,38.0,18.0,-100.00,SE,135,6.0,19.0,43,-99.99,,,-99.99,,2013-01-27 21:52:00,
2013-01-27 15:02:00,39.0,19.0,-100.00,SE,130,1.0,13.0,42,-99.99,,,-99.99,,2013-01-27 22:02:00,
2013-01-27 15:11:00,39.0,19.0,-100.00,SE,130,1.0,13.0,42,-99.99,,,-99.99,,2013-01-27 22:11:00,
2013-01-27 15:22:00,39.0,19.0,-100.00,SE,130,4.0,12.0,43,-99.99,,,-99.99,,2013-01-27 22:22:00,
2013-01-27 15:32:00,39.0,19.0,-100.00,SE,130,4.0,12.0,43,-99.99,,,-99.99,,2013-01-27 22:32:00,
2013-01-27 15:42:00,40.0,18.0,-100.00,SE,125,3.0,12.0,41,-99.99,,,-99.99,,2013-01-27 22:42:00,
2013-01-27 15:52:00,40.0,18.0,-100.00,SE,125,3.0,12.0,41,-99.99,,,-99.99,,2013-01-27 22:52:00,
2013-01-27 16:02:00,38.0,17.0,-100.00,SE,130,3.0,13.0,42,-99.99,,,-99.99,,2013-01-27 23:02:00,
2013-01-27 16:12:00,38.0,17.0,-100.00,SE,130,3.0,13.0,42,-99.99,,,-99.99,,2013-01-27 23:12:00,
2013-01-27 16:21:00,36.0,17.0,-100.00,SE,140,4.0,11.0,44,-99.99,,,-99.99,,2013-01-27 23:21:00,
2013-01-27 16:32:00,36.0,17.0,-100.00,SE,140,4.0,11.0,44,-99.99,,,-99.99,,2013-01-27 23:32:00,
2013-01-27 16:41:00,35.0,16.0,-100.00,SE,140,3.0,-999.0,45,-99.99,,,-99.99,,2013-01-27 23:41:00,
2013-01-27 16:53:00,35.0,16.0,-100.00,SE,140,3.0,-999.0,45,-99.99,,,-99.99,,2013-01-27 23:53:00,
2013-01-27 17:02:00,33.0,16.0,-100.00,SSE,155,2.0,7.0,48,-99.99,,,-99.99,,2013-01-28 00:02:00,
2013-01-27 17:11:00,33.0,16.0,-100.00,SSE,155,2.0,7.0,48,-99.99,,,-99.99,,2013-01-28 00:11:00,
2013-01-27 17:21:00,33.0,16.0,-100.00,SSE,155,4.0,-999.0,49,-99.99,,,-99.99,,2013-01-28 00:21:00,
2013-01-27 17:32:00,33.0,16.0,-100.00,SSE,155,4.0,-999.0,49,-99.99,,,-99.99,,2013-01-28 00:32:00,
2013-01-27 17:42:00,32.0,16.0,-100.00,SSE,165,3.0,-999.0,51,-99.99,,,-99.99,,2013-01-28 00:42:00,
2013-01-27 17:52:00,32.0,16.0,-100.00,SSE,165,3.0,-999.0,51,-99.99,,,-99.99,,2013-01-28 00:52:00,
2013-01-27 18:01:00,31.0,16.0,-100.00,South,170,4.0,7.0,52,-99.99,,,-99.99,,2013-01-28 01:01:00,
2013-01-27 18:11:00,31.0,16.0,-100.00,South,170,4.0,7.0,52,-99.99,,,-99.99,,2013-01-28 01:11:00,
2013-01-27 18:22:00,31.0,17.0,-100.00,South,180,3.0,-999.0,55,-99.99,,,-99.99,,2013-01-28 01:22:00,
2013-01-27 18:33:00,31.0,17.0,-100.00,South,180,3.0,-999.0,55,-99.99,,,-99.99,,2013-01-28 01:33:00,
2013-01-27 18:42:00,31.0,17.0,-100.00,South,190,4.0,-999.0,56,-99.99,,,-99.99,,2013-01-28 01:42:00,
2013-01-27 18:52:00,31.0,17.0,-100.00,South,190,4.0,-999.0,56,-99.99,,,-99.99,,2013-01-28 01:52:00,
2013-01-27 19:02:00,30.0,17.0,-100.00,South,190,4.0,9.0,57,-99.99,,,-99.99,,2013-01-28 02:02:00,
2013-01-27 19:11:00,30.0,17.0,-100.00,South,190,4.0,9.0,57,-99.99,,,-99.99,,2013-01-28 02:11:00,
2013-01-27 19:22:00,30.0,17.0,-100.00,SSW,195,4.0,9.0,58,-99.99,,,-99.99,,2013-01-28 02:22:00,
2013-01-27 19:32:00,30.0,17.0,-100.00,SSW,195,4.0,9.0,58,-99.99,,,-99.99,,2013-01-28 02:32:00,
2013-01-27 19:42:00,30.0,17.0,-100.00,SSW,195,2.0,7.0,58,-99.99,,,-99.99,,2013-01-28 02:42:00,
2013-01-27 19:52:00,30.0,17.0,-100.00,SSW,195,2.0,7.0,58,-99.99,,,-99.99,,2013-01-28 02:52:00,
2013-01-27 20:02:00,30.0,17.0,-100.00,SSW,195,3.0,7.0,58,-99.99,,,-99.99,,2013-01-28 03:02:00,
2013-01-27 20:12:00,30.0,17.0,-100.00,SSW,195,3.0,7.0,58,-99.99,,,-99.99,,2013-01-28 03:12:00,
2013-01-27 20:21:00,29.0,17.0,-100.00,SSW,195,4.0,9.0,58,-99.99,,,-99.99,,2013-01-28 03:21:00,
2013-01-27 20:32:00,29.0,17.0,-100.00,SSW,195,4.0,9.0,58,-99.99,,,-99.99,,2013-01-28 03:32:00,
2013-01-27 20:42:00,29.0,16.0,-100.00,South,190,4.0,10.0,57,-99.99,,,-99.99,,2013-01-28 03:42:00,
2013-01-27 20:53:00,29.0,16.0,-100.00,South,190,4.0,10.0,57,-99.99,,,-99.99,,2013-01-28 03:53:00,
2013-01-27 21:02:00,29.0,16.0,-100.00,South,190,2.0,7.0,57,-99.99,,,-99.99,,2013-01-28 04:02:00,
2013-01-27 21:11:00,29.0,16.0,-100.00,South,190,2.0,7.0,57,-99.99,,,-99.99,,2013-01-28 04:11:00,
2013-01-27 21:21:00,28.0,15.0,-100.00,South,190,3.0,7.0,57,-99.99,,,-99.99,,2013-01-28 04:21:00,
2013-01-27 21:32:00,28.0,15.0,-100.00,South,190,3.0,7.0,57,-99.99,,,-99.99,,2013-01-28 04:32:00,
2013-01-27 21:42:00,28.0,15.0,-100.00,SSW,195,3.0,9.0,58,-99.99,,,-99.99,,2013-01-28 04:42:00,
2013-01-27 21:52:00,28.0,15.0,-100.00,SSW,195,3.0,9.0,58,-99.99,,,-99.99,,2013-01-28 04:52:00,
2013-01-27 22:03:00,27.0,15.0,-100.00,SSW,195,0.0,-999.0,58,-99.99,,,-99.99,,2013-01-28 05:03:00,
2013-01-27 22:11:00,27.0,15.0,-100.00,SSW,195,0.0,-999.0,58,-99.99,,,-99.99,,2013-01-28 05:11:00,
2013-01-27 22:21:00,26.0,14.0,-100.00,SSW,200,1.0,3.0,60,-99.99,,,-99.99,,2013-01-28 05:21:00,
2013-01-27 22:32:00,26.0,14.0,-100.00,SSW,200,1.0,3.0,60,-99.99,,,-99.99,,2013-01-28 05:32:00,
2013-01-27 22:41:00,26.0,14.0,-100.00,SSW,200,1.0,3.0,60,-99.99,,,-99.99,,2013-01-28 05:41:00,
2013-01-27 22:52:00,26.0,14.0,-100.00,SSW,200,1.0,3.0,60,-99.99,,,-99.99,,2013-01-28 05:52:00,
2013-01-27 23:02:00,26.0,12.0,-100.00,South,185,2.0,-999.0,56,-99.99,,,-99.99,,2013-01-28 06:02:00,
2013-01-27 23:11:00,26.0,12.0,-100.00,South,185,2.0,-999.0,56,-99.99,,,-99.99,,2013-01-28 06:11:00,
2013-01-27 23:22:00,26.0,12.0,-100.00,South,185,2.0,-999.0,56,-99.99,,,-99.99,,2013-01-28 06:22:00,
2013-01-27 23:32:00,26.0,12.0,-100.00,South,185,2.0,-999.0,56,-99.99,,,-99.99,,2013-01-28 06:32:00,
2013-01-27 23:42:00,26.0,11.0,-100.00,South,170,3.0,6.0,52,-99.99,,,-99.99,,2013-01-28 06:42:00,
2013-01-27 23:52:00,26.0,11.0,-100.00,South,170,3.0,6.0,52,-99.99,,,-99.99,,2013-01-28 06:52:00,